When you browse on this site, cookies collect data to enhance your experience and personalize the content and advertising you see.
Visit our Privacy Policy to learn more. By continuing to use the site, you agree to this use of cookies and data.
  • In Portugal
  • List of Countries
  • For 7 days
  • Water Temperature
  • Satellite Maps
  • Weather Map
  • Weather Widgets
  • user-avatar
    Login

    Hourly Weather Zenica

    Today, 19 November, Monday

    Time Temperature Precipitation Wind Pressure Humidity
    00:00 -2°C° 0 mm 1 mps 672 mmHg 85%
    01:00 -3°C° 0 mm 1 mps 672 mmHg 84%
    02:00 -3°C° 0 mm 1 mps 671 mmHg 85%
    03:00 -3°C° 0 mm 1 mps 671 mmHg 86%
    04:00 -3°C° 0 mm 1 mps 671 mmHg 87%
    05:00 -3°C° 0 mm 1 mps 671 mmHg 88%
    06:00 -3°C° 0 mm 1 mps 671 mmHg 88%
    07:00 -3°C° 0 mm 1 mps 671 mmHg 88%
    08:00 -1°C° 0 mm 1 mps 672 mmHg 77%
    09:00 +1°C° 0 mm 1 mps 672 mmHg 66%
    10:00 +3°C° 0 mm 1 mps 673 mmHg 56%
    11:00 +4°C° 0 mm 1 mps 673 mmHg 53%
    12:00 +5°C° 0 mm 1 mps 673 mmHg 51%
    13:00 +6°C° 0 mm 1 mps 673 mmHg 48%
    14:00 +5°C° 0 mm 1 mps 673 mmHg 54%
    15:00 +4°C° 0 mm 1 mps 673 mmHg 60%
    16:00 +2°C° 0 mm 1 mps 673 mmHg 66%
    17:00 +2°C° 0.4 mm 1 mps 672 mmHg 71%
    18:00 +1°C° 0.4 mm 1 mps 672 mmHg 76%
    19:00 +1°C° 0.4 mm 1 mps 672 mmHg 81%
    20:00 +1°C° 1.1 mm 1 mps 671 mmHg 84%
    21:00 +1°C° 1.1 mm 1 mps 671 mmHg 86%
    22:00 +1°C° 1.1 mm 1 mps 671 mmHg 88%
    23:00 -1°C° 1.3 mm 2 mps 671 mmHg 89%

    Tomorrow, 20 November, Tuesday

    Time Temperature Precipitation Wind Pressure Humidity
    00:00 -1°C° 1.3 mm 2 mps 670 mmHg 90%
    01:00 +1°C° 1.3 mm 2 mps 670 mmHg 91%
    02:00 +1°C° 1.6 mm 2 mps 669 mmHg 92%
    03:00 +2°C° 1.6 mm 2 mps 669 mmHg 93%
    04:00 +2°C° 1.6 mm 2 mps 669 mmHg 94%
    05:00 +3°C° 1.9 mm 2 mps 668 mmHg 94%
    06:00 +3°C° 1.9 mm 2 mps 668 mmHg 94%
    07:00 +4°C° 1.9 mm 2 mps 668 mmHg 95%
    08:00 +5°C° 1.7 mm 2 mps 669 mmHg 94%
    09:00 +6°C° 1.7 mm 2 mps 669 mmHg 92%
    10:00 +7°C° 1.7 mm 2 mps 670 mmHg 91%
    11:00 +8°C° 0.5 mm 2 mps 670 mmHg 90%
    12:00 +8°C° 0.5 mm 2 mps 670 mmHg 88%
    13:00 +9°C° 0.5 mm 2 mps 670 mmHg 87%
    14:00 +8°C° 0.1 mm 2 mps 670 mmHg 89%
    15:00 +7°C° 0.1 mm 2 mps 670 mmHg 92%
    16:00 +7°C° 0.1 mm 2 mps 670 mmHg 94%
    17:00 +7°C° 0 mm 1 mps 670 mmHg 95%
    18:00 +6°C° 0 mm 1 mps 671 mmHg 96%
    19:00 +6°C° 0 mm 1 mps 671 mmHg 96%
    20:00 +6°C° 0 mm 1 mps 671 mmHg 96%
    21:00 +6°C° 0 mm 1 mps 671 mmHg 96%
    22:00 +6°C° 0 mm 1 mps 671 mmHg 96%
    23:00 +6°C° 0.1 mm 1 mps 671 mmHg 96%

    Day after tomorrow, 21 November, Wednesday

    Time Temperature Precipitation Wind Pressure Humidity
    00:00 +6°C° 0.1 mm 1 mps 671 mmHg 96%
    01:00 +6°C° 0.1 mm 1 mps 671 mmHg 96%
    02:00 +5°C° 0.1 mm 1 mps 671 mmHg 96%
    03:00 +5°C° 0.1 mm 1 mps 671 mmHg 96%
    04:00 +5°C° 0.1 mm 1 mps 672 mmHg 96%
    05:00 +5°C° 0.1 mm 1 mps 672 mmHg 96%
    06:00 +5°C° 0.1 mm 1 mps 672 mmHg 96%
    07:00 +5°C° 0.1 mm 1 mps 672 mmHg 96%
    08:00 +6°C° 0.1 mm 1 mps 673 mmHg 94%
    09:00 +6°C° 0.1 mm 1 mps 673 mmHg 92%
    10:00 +7°C° 0.1 mm 1 mps 674 mmHg 91%
    11:00 +7°C° 0.1 mm 1 mps 674 mmHg 88%
    12:00 +8°C° 0.1 mm 1 mps 675 mmHg 86%
    13:00 +8°C° 0.1 mm 1 mps 675 mmHg 83%
    14:00 +8°C° 0 mm 1 mps 675 mmHg 86%
    15:00 +7°C° 0 mm 1 mps 675 mmHg 89%
    16:00 +6°C° 0 mm 1 mps 675 mmHg 92%
    17:00 +6°C° 0 mm 1 mps 675 mmHg 93%
    18:00 +6°C° 0 mm 1 mps 676 mmHg 94%
    19:00 +5°C° 0 mm 1 mps 676 mmHg 95%
    20:00 +4°C° 0 mm 0 mps 676 mmHg 95%
    21:00 +4°C° 0 mm 0 mps 676 mmHg 95%
    22:00 +3°C° 0 mm 0 mps 676 mmHg 95%
    23:00 +3°C° 0 mm 0 mps 677 mmHg 95%

    22 November, Thursday

    Time Temperature Precipitation Wind Pressure Humidity
    00:00 +3°C° 0 mm 0 mps 677 mmHg 95%
    01:00 +3°C° 0 mm 0 mps 677 mmHg 95%
    02:00 +3°C° 0 mm 0 mps 677 mmHg 95%
    03:00 +3°C° 0 mm 0 mps 677 mmHg 95%
    04:00 +3°C° 0 mm 0 mps 677 mmHg 95%
    05:00 +3°C° 0 mm 0 mps 677 mmHg 95%
    06:00 +3°C° 0 mm 0 mps 677 mmHg 95%
    07:00 +3°C° 0 mm 0 mps 677 mmHg 95%
    08:00 +4°C° 0 mm 0 mps 678 mmHg 90%
    09:00 +5°C° 0 mm 0 mps 678 mmHg 86%
    10:00 +7°C° 0 mm 0 mps 679 mmHg 81%
    11:00 +7°C° 0 mm 0 mps 679 mmHg 79%
    12:00 +9°C° 0 mm 1 mps 679 mmHg 76%
    13:00 +9°C° 0 mm 1 mps 679 mmHg 74%
    14:00 +8°C° 0 mm 1 mps 679 mmHg 78%
    15:00 +8°C° 0 mm 1 mps 679 mmHg 83%
    16:00 +7°C° 0 mm 1 mps 679 mmHg 87%
    17:00 +6°C° 0 mm 1 mps 679 mmHg 90%
    18:00 +6°C° 0 mm 1 mps 679 mmHg 92%
    19:00 +5°C° 0 mm 1 mps 679 mmHg 94%
    20:00 +4°C° 0 mm 0 mps 680 mmHg 95%
    21:00 +4°C° 0 mm 0 mps 680 mmHg 95%
    22:00 +3°C° 0 mm 0 mps 680 mmHg 95%
    23:00 +3°C° 0 mm 0 mps 680 mmHg 95%

    23 November, Friday

    Time Temperature Precipitation Wind Pressure Humidity
    00:00 +3°C° 0 mm 0 mps 681 mmHg 95%
    01:00 +3°C° 0 mm 0 mps 681 mmHg 95%
    02:00 +3°C° 0 mm 0 mps 681 mmHg 95%
    03:00 +3°C° 0 mm 0 mps 681 mmHg 95%
    04:00 +4°C° 0 mm 1 mps 681 mmHg 95%
    05:00 +4°C° 0 mm 1 mps 681 mmHg 95%
    06:00 +3°C° 0 mm 0 mps 682 mmHg 94%
    07:00 +2°C° 0 mm 0 mps 682 mmHg 94%
    08:00 +5°C° 0 mm 1 mps 682 mmHg 89%
    09:00 +6°C° 0 mm 1 mps 683 mmHg 85%
    10:00 +7°C° 0 mm 1 mps 683 mmHg 80%
    11:00 +8°C° 0 mm 1 mps 683 mmHg 77%
    12:00 +8°C° 0 mm 1 mps 683 mmHg 74%
    13:00 +9°C° 0 mm 1 mps 683 mmHg 72%
    14:00 +8°C° 0 mm 1 mps 683 mmHg 76%
    15:00 +7°C° 0 mm 1 mps 683 mmHg 79%
    16:00 +6°C° 0 mm 1 mps 683 mmHg 83%
    17:00 +6°C° 0 mm 1 mps 683 mmHg 86%
    18:00 +4°C° 0 mm 0 mps 683 mmHg 89%
    19:00 +3°C° 0 mm 0 mps 683 mmHg 92%
    20:00 +4°C° 0 mm 1 mps 683 mmHg 92%
    21:00 +3°C° 0 mm 1 mps 683 mmHg 92%
    22:00 +3°C° 0 mm 1 mps 683 mmHg 92%
    23:00 +3°C° 0 mm 1 mps 683 mmHg 91%

    24 November, Saturday

    Time Temperature Precipitation Wind Pressure Humidity
    00:00 +3°C° 0 mm 1 mps 683 mmHg 91%
    01:00 +3°C° 0 mm 1 mps 682 mmHg 90%
    02:00 +3°C° 0 mm 1 mps 682 mmHg 90%
    03:00 +3°C° 0 mm 1 mps 682 mmHg 89%
    04:00 +3°C° 0 mm 1 mps 682 mmHg 89%
    05:00 +3°C° 0 mm 1 mps 682 mmHg 87%
    06:00 +3°C° 0 mm 1 mps 681 mmHg 86%
    07:00 +3°C° 0 mm 1 mps 681 mmHg 84%
    08:00 +5°C° 0 mm 1 mps 682 mmHg 78%
    09:00 +7°C° 0 mm 1 mps 682 mmHg 72%
    10:00 +8°C° 0 mm 1 mps 682 mmHg 66%
    11:00 +9°C° 0 mm 1 mps 682 mmHg 64%
    12:00 +10°C° 0 mm 1 mps 682 mmHg 62%
    13:00 +11°C° 0 mm 1 mps 682 mmHg 60%
    14:00 +10°C° 0 mm 1 mps 682 mmHg 66%
    15:00 +9°C° 0 mm 1 mps 681 mmHg 72%
    16:00 +8°C° 0 mm 1 mps 681 mmHg 78%
    17:00 +6°C° 0 mm 2 mps 681 mmHg 80%
    18:00 +5°C° 0 mm 2 mps 680 mmHg 83%
    19:00 +5°C° 0 mm 2 mps 680 mmHg 86%
    20:00 +5°C° 0 mm 2 mps 680 mmHg 85%
    21:00 +5°C° 0 mm 2 mps 680 mmHg 84%
    22:00 +4°C° 0 mm 2 mps 680 mmHg 83%
    23:00 +4°C° 0 mm 2 mps 680 mmHg 83%
    Show more